Helicity
191 193 141 110 117 96 85 72 82 86 98 99 104 111 151 125 106 101 131 263 158 98 35 48 50 57 59 61 67 68 73 68 75 69 72 77 72 77 92 95 76 68 52
145 163 127 132 119 100 98 98 110 131 129 112 122 117 100 115 95 110 119 116 146 144 45 35 58 82 84 81 69 80 90 102 107 111 116 115 112 124 109 92 81 78 72
77 124 137 119 119 116 123 139 134 121 111 105 124 140 140 144 127 137 153 151 137 155 80 46 99 77 84 95 89 123 116 119 111 118 120 136 125 80 62 62 64 82 78
79 115 118 124 117 113 122 134 118 131 144 130 141 171 196 243 196 202 205 194 194 192 259 96 52 95 127 155 129 109 98 95 107 125 122 117 97 90 89 78 81 121 159
98 107 116 107 105 125 118 106 118 115 129 144 163 202 229 246 230 228 245 246 291 371 358 418 227 62 64 76 90 85 93 85 106 113 104 78 83 95 109 130 143 156 171
107 106 103 98 121 127 115 114 127 124 134 169 195 234 229 230 233 267 235 211 234 378 394 395 369 303 193 115 86 86 75 97 90 89 82 96 111 135 149 152 170 194 202
118 109 123 123 116 120 117 118 140 156 158 150 232 255 245 223 249 253 231 235 259 284 324 342 299 233 209 199 85 79 76 100 122 127 125 122 128 116 113 131 157 170 190
135 130 139 145 134 146 142 140 151 179 154 91 128 170 135 153 197 231 206 210 228 231 277 299 326 324 237 222 246 201 141 120 127 148 142 117 89 68 65 94 127 141 153
142 147 146 166 168 173 170 147 147 168 180 107 99 139 119 101 143 167 173 185 204 205 221 248 289 315 256 219 214 228 201 132 92 79 74 61 46 24 -15 15 14 60 127
155 172 170 186 192 193 181 161 150 140 158 170 148 122 146 124 150 146 158 169 189 204 207 219 239 246 279 219 215 200 183 157 140 135 129 104 72 50 48 64 70 80 112
183 197 208 215 203 206 185 181 175 160 151 188 183 160 163 171 160 149 170 173 196 185 194 206 208 231 251 238 220 193 165 159 151 151 150 147 112 91 89 101 96 105 104
249 215 225 218 213 212 215 207 198 183 179 174 191 157 134 136 131 151 161 180 184 186 176 181 203 223 227 235 257 269 177 155 143 140 152 157 146 121 136 139 130 125 130
322 239 254 249 248 237 225 239 230 219 220 212 220 189 192 200 144 151 169 200 172 173 176 188 184 192 190 194 223 225 243 190 164 139 149 168 166 175 187 168 158 145 142
331 300 278 260 242 259 253 246 246 273 241 239 236 229 210 173 163 159 171 196 188 179 162 164 189 199 210 211 188 192 216 215 191 180 188 173 180 188 190 185 166 151 137
374 376 314 293 285 291 286 277 285 271 268 283 251 235 211 184 182 181 174 163 183 196 194 157 184 181 187 189 195 181 183 211 211 206 188 172 171 175 173 164 154 149 141
486 486 456 446 494 464 420 367 313 301 337 324 275 249 245 210 203 187 185 177 184 187 213 181 186 168 190 207 253 252 207 206 202 193 174 166 163 160 152 141 137 127 121
450 437 544 548 549 458 446 429 400 377 382 343 305 266 243 228 238 220 225 213 212 213 225 207 205 172 210 210 231 216 174 174 192 176 167 175 162 149 143 132 122 113 111
337 244 260 228 216 204 266 370 388 454 410 359 327 272 282 264 245 241 242 232 234 233 245 212 172 182 193 206 220 218 214 199 184 178 179 166 159 147 144 131 127 121 116
338 444 319 408 401 330 273 255 229 200 242 255 337 339 316 283 256 259 265 304 320 293 248 223 236 194 229 244 253 249 224 225 208 179 154 155 152 140 133 128 127 127 126
332 347 310 340 290 308 335 354 389 401 403 404 397 358 310 289 268 261 292 360 331 324 266 293 255 242 233 225 234 242 238 217 187 149 164 155 125 122 124 117 121 126 123
362 349 345 354 331 337 336 325 345 387 444 435 384 482 381 349 355 416 418 402 356 372 315 281 258 251 222 222 208 199 206 206 204 168 137 122 114 103 111 93 115 117 101
390 415 396 393 387 370 274 272 348 356 365 403 443 401 396 374 428 462 485 552 447 470 409 359 297 242 208 192 222 220 240 228 233 154 143 134 126 114 123 112 119 91 89
404 396 372 327 333 343 230 211 266 362 383 381 395 398 454 433 484 495 552 690 718 628 538 472 386 302 271 201 267 241 247 217 238 168 163 146 123 118 114 98 105 85 128
390 336 364 343 344 293 229 232 263 389 404 417 390 402 445 433 438 519 589 587 568 492 406 347 300 306 291 261 261 238 230 250 233 163 147 168 153 127 127 102 103 94 141
443 353 347 371 337 340 244 263 325 375 376 366 378 384 367 390 362 370 420 444 403 417 407 370 395 350 273 242 244 240 218 177 177 155 138 158 154 139 121 120 121 98 94
467 430 420 384 321 340 243 231 282 385 424 442 410 394 297 290 246 318 385 371 393 401 408 399 385 370 332 231 192 176 172 167 174 151 152 143 148 140 137 137 143 119 106
Wind_Speed
12 11 11 5 2 7 8 11 13 14 13 13 15 16 18 20 20 24 27 28 24 25 22 18 24 27 30 31 32 33 34 35 38 41 44 45 47 49 50 52 54 56 54
13 15 14 7 3 1 5 8 10 11 15 16 17 19 22 18 21 23 25 24 24 25 27 23 23 25 27 32 33 34 37 40 42 45 47 48 48 49 47 47 51 55 53
13 15 13 7 4 4 6 10 11 12 13 18 20 20 21 24 27 25 25 24 25 29 26 19 24 24 27 28 35 37 38 38 40 42 43 44 42 44 48 53 56 54 53
17 16 14 9 7 5 4 9 9 11 12 16 18 19 21 21 21 25 30 30 30 29 23 22 26 29 40 35 35 36 37 37 37 38 37 39 41 46 49 53 54 53 53
20 17 17 12 9 8 6 6 9 10 13 14 16 19 19 19 20 19 21 29 24 23 22 23 40 43 41 37 31 38 35 36 36 38 38 39 41 45 48 49 50 51 51
25 20 16 14 12 9 7 6 7 7 10 14 15 16 18 20 20 20 21 21 23 24 24 25 28 33 32 30 34 38 33 35 39 42 41 43 46 48 49 49 49 50 51
29 24 21 18 16 14 11 9 7 9 8 14 11 14 18 19 19 21 21 21 21 21 20 19 20 22 23 20 36 35 35 37 39 40 41 43 46 47 49 50 50 50 51
32 29 26 23 20 17 14 12 9 6 3 4 9 8 15 18 21 22 22 21 22 21 21 21 22 22 22 27 33 35 35 36 38 40 41 43 45 46 47 48 50 51 52
35 32 29 27 24 21 19 15 12 10 9 16 4 20 18 21 15 25 22 22 22 23 23 24 25 26 27 28 31 34 36 36 38 39 40 42 44 46 46 48 50 51 52
38 36 33 31 28 26 23 21 17 17 14 11 19 28 29 19 21 22 25 23 23 24 25 26 26 27 29 29 31 32 34 37 38 39 40 41 43 45 45 49 49 51 52
41 41 37 35 32 30 29 26 23 23 21 19 22 22 25 25 21 23 25 23 25 26 27 27 26 28 30 31 31 31 33 35 37 39 39 41 43 44 45 47 49 50 51
47 45 43 41 38 36 32 30 29 27 25 25 24 21 21 26 22 27 28 21 22 29 27 27 28 28 29 29 31 33 32 34 35 38 39 40 42 43 44 46 48 49 50
55 52 47 45 43 40 37 35 33 32 30 27 24 25 26 28 22 26 20 21 29 30 30 29 28 28 28 28 29 32 34 33 34 36 37 38 40 42 44 45 47 48 50
61 57 53 49 47 43 41 39 39 37 34 29 26 27 27 27 23 21 26 20 32 36 32 29 29 27 27 28 27 29 32 32 33 35 36 38 40 42 43 45 46 47 48
65 60 58 55 52 48 46 43 43 40 35 32 29 29 30 30 27 27 25 22 31 39 37 30 33 26 23 23 29 27 29 31 32 33 34 37 39 41 43 44 45 47 48
63 61 61 59 55 52 50 49 47 42 37 36 34 34 32 31 32 26 29 29 37 37 38 34 33 23 23 25 28 28 27 29 30 30 33 35 37 39 41 43 45 46 47
62 61 59 59 62 56 55 51 51 48 45 41 41 41 38 35 34 33 33 33 33 36 35 36 31 23 25 26 27 25 26 27 30 31 31 32 35 38 41 43 44 44 46
62 66 54 60 56 57 62 52 55 53 48 45 44 43 41 38 40 38 36 35 33 32 35 30 29 27 26 26 25 26 28 28 28 28 30 33 36 38 40 41 44 45 47
59 57 61 59 62 53 57 59 56 47 48 44 46 48 41 40 40 41 38 36 36 36 33 31 32 27 26 26 25 27 28 28 28 28 32 35 38 39 41 42 44 47 49
56 57 54 52 52 50 45 52 47 44 41 48 41 43 42 46 45 41 41 38 35 37 36 32 29 28 30 27 28 29 31 30 31 32 36 37 38 39 41 43 46 48 49
57 56 53 49 49 47 44 41 40 43 42 44 49 43 38 43 42 41 40 40 39 38 37 36 35 34 35 31 32 31 33 31 33 35 36 36 38 38 40 42 45 50 50
53 52 53 52 51 50 46 45 43 42 41 43 41 36 36 36 40 42 40 40 38 41 44 42 41 42 39 35 32 31 31 33 44 36 39 39 39 40 42 44 49 51 48
51 53 52 48 48 47 44 43 43 41 39 38 37 37 37 39 40 33 36 35 41 41 41 47 48 43 40 33 33 34 34 37 41 37 40 45 39 44 41 45 46 47 40
50 50 51 47 45 43 39 38 37 39 40 39 39 39 42 37 34 30 35 40 42 44 43 41 38 38 35 32 31 31 29 31 34 36 39 48 40 45 44 46 45 43 41
52 46 45 46 45 44 40 39 38 38 40 39 38 38 40 40 38 37 39 39 42 40 34 32 33 29 26 27 25 22 29 35 42 42 41 46 46 49 50 49 42 44 45
57 56 51 47 44 43 39 37 36 37 40 41 40 38 41 44 42 38 37 38 37 32 27 25 23 23 23 22 26 30 32 39 44 49 42 48 49 50 55 45 49 46 47
Wind_Direction
214 223 231 248 56 71 46 49 44 31 22 9 4 349 344 345 333 332 339 340 320 313 332 8 53 62 61 56 51 50 47 42 42 42 40 40 40 37 35 32 31 32 33
227 225 215 219 135 77 57 52 51 37 36 27 21 18 20 358 354 345 346 334 327 311 267 56 54 56 57 59 58 55 55 54 50 47 43 40 38 33 29 25 24 25 22
212 188 203 196 194 232 84 81 67 56 44 42 37 28 22 18 12 352 350 338 321 312 294 33 46 49 53 55 64 61 56 52 49 42 38 34 27 28 29 32 33 22 16
195 201 204 198 198 183 128 97 84 71 54 49 37 25 21 11 6 10 13 10 358 351 358 36 31 53 70 68 64 60 55 52 43 35 28 22 21 24 25 27 27 23 15
208 208 214 205 177 162 149 126 100 84 73 55 38 22 7 3 2 354 2 7 348 357 14 28 53 65 65 62 59 54 53 49 33 28 21 13 9 13 14 12 11 13 12
216 213 211 188 185 182 178 161 128 88 69 66 45 24 11 5 4 354 352 353 2 18 38 32 44 42 44 45 44 45 36 25 31 31 19 16 13 12 11 9 9 8 8
219 219 215 205 211 206 195 170 152 119 86 86 44 18 7 358 350 345 344 345 351 0 4 9 8 8 16 6 35 32 25 22 22 17 15 14 13 12 12 12 10 7 6
221 221 217 215 215 208 199 199 184 190 137 100 311 351 325 327 334 330 337 341 346 348 349 344 347 339 339 354 6 10 13 16 17 17 15 12 11 10 10 11 10 8 7
224 224 220 221 218 218 213 209 209 193 242 276 265 303 311 307 316 315 328 334 335 339 338 335 335 337 341 347 353 357 1 8 11 13 14 12 11 10 12 11 9 9 7
227 227 225 225 225 229 224 227 229 249 252 254 277 291 298 313 299 301 308 318 327 330 332 333 333 334 335 344 351 356 358 0 5 7 8 10 10 11 9 7 6 5 5
229 230 229 229 229 234 235 234 235 252 259 261 276 291 302 307 312 304 295 298 309 317 321 324 328 330 332 336 342 347 353 357 360 1 2 4 5 6 5 5 4 4 4
231 232 233 235 236 239 236 238 243 252 260 267 273 285 295 299 298 303 305 297 300 304 312 316 320 325 331 336 339 343 350 353 356 357 359 0 1 3 5 5 5 3 2
232 232 234 236 239 243 243 244 246 252 259 263 264 277 291 299 303 303 305 299 300 301 305 310 312 315 324 330 335 338 342 348 352 355 358 0 1 1 1 1 1 0 360
235 237 236 238 240 242 244 247 250 255 258 260 263 276 287 295 299 299 297 291 298 297 300 305 307 312 317 322 329 337 338 345 349 351 354 355 356 357 358 358 359 359 1
238 237 238 239 240 241 243 247 252 253 254 258 263 274 282 289 293 297 294 286 293 290 295 299 303 306 314 321 322 333 338 343 346 348 350 351 353 355 356 358 359 359 359
240 238 239 239 239 242 244 246 253 253 251 258 264 270 279 286 288 293 291 287 291 293 297 302 301 299 307 315 319 328 337 343 345 348 349 350 352 354 355 355 355 356 356
239 241 241 244 244 241 245 248 252 251 253 257 262 267 275 281 284 286 285 285 290 293 294 303 301 299 300 306 312 324 330 339 340 342 347 350 349 351 352 352 353 354 353
245 250 244 242 254 245 251 252 251 252 255 256 259 264 272 279 281 280 281 282 285 293 294 289 293 294 295 301 305 312 319 329 334 340 343 344 345 346 348 350 349 349 349
245 250 254 251 253 253 255 262 255 255 255 257 263 266 271 273 274 277 278 280 287 292 291 288 294 291 295 298 302 310 313 321 331 333 334 336 336 340 343 344 344 343 343
249 247 253 254 255 256 261 259 261 262 259 263 265 271 273 270 271 271 277 277 283 286 289 287 287 288 290 291 297 299 303 310 316 321 324 328 332 336 338 338 338 338 340
250 250 250 253 256 257 259 258 260 261 263 265 267 273 273 271 273 278 273 274 277 281 283 284 283 286 286 283 287 295 298 305 315 317 318 322 327 331 334 334 335 335 335
248 249 251 251 252 257 256 259 262 262 263 264 265 268 271 270 274 278 278 280 276 276 278 282 281 281 283 283 289 291 296 300 306 312 314 317 324 325 328 330 331 331 333
245 248 251 248 251 255 254 257 260 261 262 265 265 263 268 272 272 275 278 287 284 285 284 283 281 280 281 281 288 289 295 298 306 311 312 313 321 322 326 328 331 331 334
243 243 245 248 251 253 251 253 257 260 265 266 265 265 268 268 269 272 278 283 287 287 289 287 281 284 285 288 290 296 300 307 313 316 317 314 322 322 325 327 330 329 329
245 240 242 248 251 253 250 252 258 260 263 263 265 267 266 267 269 274 277 277 281 288 296 293 293 293 291 292 296 300 298 299 304 309 316 314 318 320 321 323 328 327 325
248 248 251 252 252 250 247 248 255 261 262 264 266 266 264 269 269 273 274 276 280 284 288 293 299 300 300 302 305 301 300 300 304 305 313 312 316 321 319 326 325 327 329